Share

Ambler, AK

11:34 PM AKDT on April 24, 2014 (GMT -0800)
Ambler (PAFM) Elev 289 ft | 67.11 °N, 157.86 °W | Change Station

Current weather conditions updated 18 minutes ago

Partly Cloudy
Partly Cloudy
34 °F
Feels Like 28 °F
N
7
Wind Variable Wind from NNE
Sunrise 6:07 AM
Sunset 10:54 PM
Moon Waning Crescent

Tomorrow is forecast to be nearly the same temperature as today.

Pressure 29.58 in
Visibility 10.0 miles
Clouds Few 11000 ft
Windchill 28 °F
Dew Point 21 °F
Humidity 60%
Rainfall 0.00 in
Snow Depth Not available.
UV 0 out of 16
Pollen Not available.
Air Quality Not available.
Flu Activity Sporadic
METAR PAFM 250716Z AUTO 02006KT 10SM FEW110 01/M06 A2958 RMK AO1

More Conditions Fewer Conditions

Pressure 29.58 in
Visibility 10.0 miles
Clouds Few 11000 ft
Windchill 28 °F
Dew Point 21 °F
Humidity 60%
Rainfall 0.00 in
Snow Depth Not available.
UV 0 out of 16
Pollen Not available.
Air Quality Not available.
Flu Activity Sporadic
METAR PAFM 250716Z AUTO 02006KT 10SM FEW110 01/M06 A2958 RMK AO1

More Conditions Fewer Conditions

10-Day Weather Forecast

Almanac

Astronomy

Apr. 24, 2014 Rise Set
Actual Time 6:07 AM AKDT 10:54 PM AKDT
Civil Twilight 4:49 AM AKDT 12:14 AM AKDT
Nautical Twilight 3:02 AM AKDT Sun does not rise
Astronomical Twilight Sun does not rise Sun does not rise
Moon 5:37 AM AKDT (4/24) 4:20 PM AKDT (4/24)
Length of Visible Light 19h 24m
Length of Day
16h 47m
Tomorrow will be 8m 8s longer.
Waning Crescent, 18% of the Moon is Illuminated
Apr 25
Waning Crescent
Apr 29
New
May 6
First Quarter
May 14
Full
May 21
Last Quarter

Community

  • Deer in evening light
    Deer in evening light
  • Critter
    Critter
  • Jone Runs Falls
    Jone Runs Falls
  • Easter in Shenandoah National Park
    Easter in Shenandoah National Park
  • Sunset at Apalachicola Bay, Florida
    Sunset at Apalachicola Bay, Florida

WunderPhotos

Upload Photos

1,704,872 photos uploaded!

WunderBlogs® & News

Nearby

Snow Depth

Station Depth Elevation
Gobblers Knob 6 in 2030 ft
Coldfoot 20 in 1040 ft
Atigun Pass 37 in 4800 ft
Rocky Point 1 in 500 ft
Imnaviat Creek 26 in 3050 ft

Coastal Water Temperatures

Place Temperature
No Stations Reporting

Earthquake Activity

City Distance Mag. Time & Date
No recent earthquake activity has been reported nearby.
Minimum magnitude displayed is 2.5.

Nearby Weather Stations

There are no personal weather stations in this area.

What do you think?

We're not finished. Please let us know what you like, what you don't like, and what you are still missing.